Regional Weather Roundup
Issued by NWS Albany, NY

Home | Current Version | Previous Version | Text Only | Print | Product List | Glossary On
Versions: 1 2 3 4 5 6 7 8 9 10 11 12 13 14 15 16 17 18 19 20 21 22 23 24 25 26 27 28
000
ASUS41 KALY 031510
RWRALY

NEW YORK STATE HOURLY WEATHER ROUNDUP
NATIONAL WEATHER SERVICE ALBANY NY
1100 AM EDT TUE MAY 03 2016

NOTE: "FAIR" INDICATES FEW OR NO CLOUDS BELOW 12,000 FEET WITH NO
SIGNIFICANT WEATHER AND/OR NO OBSTRUCTIONS TO VISIBILITY.

NYZ032-033-038>043-046>054-057>066-NYZ062>081-082-084-031600-
EAST


CITY           SKY/WX    TMP DP  RH WIND       PRES   REMARKS
ALBANY         CLOUDY    51  43  74 N12       29.91F
GLENS FALLS    CLOUDY    49  39  68 NE8       29.92F
POUGHKEEPSIE   CLOUDY    53  48  83 N7        29.88S
NEWBURGH       LGT RAIN  52  50  93 NE7       29.88S FOG
MONTGOMERY     CLOUDY    51  48  89 N8        29.87S
WHITE PLAINS   LGT RAIN  51  50  96 E5        29.86R FOG
ISLIP          LGT RAIN  53  51  93 E12       29.85F FOG
NEW YORK CITY  LGT RAIN  53  50  89 NE15      29.86R VSB 1
CENTRAL PARK   LGT RAIN  51  49  92 E10       29.88S FOG
$$

NYZ005>009-017-018-044>046-055-056-031600-
CENTRAL


CITY           SKY/WX    TMP DP  RH WIND       PRES   REMARKS
FULTON         CLOUDY    54  40  59 N7        29.90F
SYRACUSE       CLOUDY    48  41  76 CALM      29.90F
ROME           CLOUDY    48  42  80 NW3       29.91F
ELMIRA         CLOUDY    48  41  76 NE7       29.88S
BINGHAMTON     CLOUDY    45  40  82 NE3       29.86S
MONTICELLO     CLOUDY    46  45  93 E8        29.88R
$$

NYZ026>034-041>043-087-031600-
NORTH


CITY           SKY/WX    TMP DP  RH WIND       PRES   REMARKS
WATERTOWN      MOSUNNY   51  42  71 E13       29.91F
FORT DRUM      NOT AVBL
MASSENA        PTSUNNY   50  40  68 CALM      29.95F
SARANAC LAKE   CLOUDY    44  34  67 NE12      29.90R
PLATTSBURGH    NOT AVBL
$$

NYZ001>004-010>016-019>021-085-031600-
WEST


CITY           SKY/WX    TMP DP  RH WIND       PRES   REMARKS
NIAGARA FALLS  PTSUNNY   55  42  61 E7        29.89F
BUFFALO        MOSUNNY   53  42  66 E7        29.89F
DUNKIRK        CLOUDY    50  43  77 N8        29.89S
JAMESTOWN      CLOUDY    45  41  87 N3        29.86R
WELLSVILLE     CLOUDY    47  39  74 E6        29.87S
ROCHESTER      PTSUNNY   52  42  69 VRB6      29.90F
PENN YAN       CLOUDY    48  41  76 NE6       29.90S
$$

             KEY
       WCI = WIND CHILL INDEX
       VSB = VISIBILITY
       HX  = HEAT INDEX
$$




USA.gov is the U.S. government's official web portal to all federal, state and local government web resources and services.